CAPE
1930 1864 1716 1404 1279 1647 1586 1479 1306 968 702 791 567 251 115 51 0 130 6 5 0 0 9 0 0 0 0 0 0 0 0 0 0 0 0 0 0 0 0 0 0 0 0
1996 2051 2038 1970 1719 1509 1577 1776 1448 1277 653 767 663 408 277 164 69 41 31 21 20 0 0 0 0 0 0 0 0 1 0 0 0 0 0 0 0 0 0 1 6 1 0
2101 2087 2380 2271 2157 1972 1672 1595 1599 1418 942 707 649 739 393 328 174 123 63 11 0 5 0 0 0 0 0 6 4 5 27 11 17 11 11 0 0 0 0 0 0 0 0
2357 2227 2296 2518 2386 2331 2145 1860 1730 1718 1119 948 751 771 737 391 203 202 147 8 0 1 0 0 0 0 5 0 12 7 26 53 36 36 18 5 0 0 0 10 0 0 0
2429 2588 2441 2531 2607 2560 2468 2183 1880 1978 1768 1087 1000 898 695 625 412 231 185 72 11 3 0 0 0 10 11 6 7 19 44 81 72 59 10 0 0 0 0 0 0 0 0
2608 2659 2757 2691 2599 2585 2695 2621 2107 2001 2077 1395 1012 1000 796 749 587 237 276 174 91 32 16 0 12 105 105 10 5 30 50 101 42 16 19 5 0 0 0 0 0 0 0
2676 2869 2898 2831 2751 2675 2637 2647 2682 2217 2034 1843 1183 1068 997 986 678 119 146 168 146 139 10 14 82 293 133 112 80 80 16 37 213 80 101 1 0 0 0 0 0 0 0
2670 2821 2998 2842 2787 2731 2749 2748 2736 2825 2354 2342 1918 1421 1324 1152 715 5 108 272 241 233 194 120 195 298 103 54 29 5 10 19 49 8 0 7 0 0 0 0 0 0 0
2416 2638 2829 2775 2648 2725 2655 2747 2771 2941 2897 2755 2740 2071 1606 1395 390 0 66 144 174 185 101 224 303 164 32 4 38 78 81 165 155 63 25 12 0 0 0 0 0 0 0
1986 2381 2660 2634 2541 2633 2746 2768 2834 2929 2987 2980 2411 1821 1619 294 0 3 2 0 17 15 0 0 72 170 75 0 37 34 62 45 10 1 0 0 0 0 0 0 0 0 0
1870 1925 2316 2480 2516 2528 2825 2847 2852 2965 2584 2011 1080 320 421 395 19 0 0 0 0 0 0 0 1 0 0 0 13 12 38 1 0 0 0 0 0 0 0 0 0 0 0
1493 1444 1681 2104 2259 2600 2879 2851 2722 2262 1788 778 381 316 293 136 67 0 0 0 0 7 31 0 0 0 0 0 0 3 0 0 0 0 0 0 0 0 0 0 0 0 0
1118 1672 1844 2048 2588 2875 2692 2230 1928 1538 1210 847 587 442 373 92 3 0 0 0 0 3 0 0 0 1 1 1 1 1 0 0 0 0 0 0 0 0 0 0 0 0 0
2236 3186 3187 2917 2681 2410 1988 1764 1550 1136 863 688 657 619 375 236 0 1 1 1 1 0 0 0 0 0 0 0 0 0 0 0 0 0 0 0 0 0 0 0 0 0 0
2830 2614 2269 1619 1219 199 1 487 644 443 872 888 560 419 320 230 31 0 0 0 0 0 0 0 0 0 0 0 0 0 0 0 0 0 0 0 0 0 0 0 0 0 0
1943 1347 286 32 3 2 0 1 0 0 0 467 504 217 1 141 118 0 0 0 0 0 0 0 0 0 0 0 0 0 0 0 0 0 0 0 0 0 0 0 0 0 0
1276 468 78 9 0 0 0 0 0 0 0 2 18 3 35 0 0 0 0 0 0 0 0 0 0 0 0 0 0 0 0 0 0 0 0 0 0 0 0 0 0 0 0
338 8 314 141 32 9 0 0 0 0 0 0 0 0 0 0 0 0 0 0 0 0 0 0 0 0 0 0 0 0 0 0 0 0 0 0 0 0 0 0 0 0 0
457 289 246 165 88 0 0 0 0 0 0 0 0 0 0 0 0 0 0 0 0 0 0 0 0 0 0 0 0 0 0 0 0 0 0 0 0 0 0 0 0 0 0
623 660 538 322 145 55 0 0 0 0 0 0 0 0 0 0 0 0 0 0 0 0 0 0 0 0 0 0 0 0 0 0 0 0 0 0 0 0 0 0 0 0 0
232 496 736 761 635 429 237 6 0 0 0 0 0 0 0 0 0 0 0 0 0 0 0 0 0 0 0 0 0 0 0 0 0 0 0 0 0 0 0 0 0 0 0
0 0 30 671 563 393 339 11 7 0 0 0 0 0 0 0 0 0 0 0 0 0 0 0 0 0 0 0 0 0 0 0 0 0 0 0 0 0 0 0 0 0 0
0 0 0 0 0 0 0 0 40 1 0 0 0 0 0 0 0 0 0 0 0 0 0 0 0 0 0 0 0 0 0 0 0 0 0 0 0 0 0 0 0 0 0
0 0 0 0 0 0 0 0 0 0 0 0 0 0 0 0 0 0 0 0 0 0 0 0 0 0 0 0 0 0 0 0 0 0 0 0 0 0 0 0 0 0 0
3 0 0 0 0 0 0 0 0 0 0 0 0 0 0 0 0 0 0 0 0 0 0 0 0 0 0 0 0 0 0 0 0 0 0 0 0 0 0 0 0 0 0
0 0 0 0 0 0 0 0 0 0 0 0 0 0 0 0 0 0 0 0 0 0 0 0 0 0 0 0 0 0 0 0 0 0 0 0 0 0 0 0 0 0 0
CIN
-303 -276 -270 -289 -256 -183 -186 -214 -231 -271 -319 -309 -352 -410 -449 -537 -74 -486 -610 -513 0 0 -444 0 0 0 0 0 0 0 0 0 0 0 0 0 0 0 0 0 0 0 0
-335 -279 -257 -243 -243 -245 -217 -212 -247 -246 -383 -336 -356 -404 -408 -453 -541 -548 -566 -504 -479 0 0 0 0 0 0 0 0 -34 0 -72 0 0 0 0 0 0 0 -76 -132 -8 0
-335 -308 -231 -220 -224 -252 -274 -260 -285 -256 -348 -383 -395 -354 -420 -417 -483 -497 -524 -499 0 -450 0 0 0 0 0 -190 -262 -195 -167 -180 -210 -211 -159 0 0 0 0 0 0 0 0
-343 -330 -291 -239 -258 -260 -265 -273 -281 -259 -330 -352 -387 -366 -354 -405 -486 -476 -501 -548 -112 -93 0 0 0 0 -248 -33 -177 -162 -159 -129 -174 -167 -237 -244 0 -5 0 -93 0 0 0
-371 -333 -355 -303 -266 -235 -231 -270 -286 -232 -225 -356 -341 -347 -383 -390 -447 -502 -513 -532 -583 -540 0 0 0 -252 -329 -207 -176 -146 -139 -119 -134 -148 -194 -60 0 0 0 0 0 0 0
-351 -362 -332 -310 -276 -255 -217 -219 -280 -254 -206 -314 -356 -330 -364 -371 -405 -515 -459 -502 -521 -515 -443 -2 -304 -193 -178 -177 -176 -111 -113 -106 -129 -133 -61 -106 0 0 0 0 0 0 0
-394 -329 -316 -311 -292 -278 -248 -223 -205 -236 -227 -238 -325 -313 -323 -306 -376 -641 -579 -529 -484 -384 -415 -365 -211 -102 -137 -111 -115 -121 -167 -159 -79 -92 -63 -92 0 0 0 0 0 0 0
-419 -356 -319 -339 -329 -283 -245 -234 -195 -153 -183 -156 -190 -251 -262 -293 -373 -541 -596 -395 -364 -304 -257 -267 -156 -111 -167 -125 -116 -93 -163 -162 -93 -155 0 -146 0 0 0 0 0 0 0
-451 -418 -378 -355 -355 -295 -281 -252 -203 -128 -103 -119 -120 -168 -237 -322 -527 0 -595 -446 -348 -292 -295 -185 -138 -142 -154 -23 -104 -74 -73 -90 -97 -110 -153 -178 0 0 0 0 0 0 0
-499 -505 -466 -395 -371 -345 -293 -255 -199 -145 -125 -115 -170 -222 -235 -612 0 -267 -500 -69 -439 -407 0 0 -152 -121 -108 0 -106 -109 -79 -94 -163 -18 0 0 0 0 0 0 0 0 0
-492 -515 -493 -427 -388 -358 -272 -215 -199 -135 -162 -216 -358 -531 -465 -506 -147 0 0 0 0 0 0 0 -67 0 0 -24 -115 -160 -112 -119 0 0 0 0 0 0 0 0 0 0 0
-479 -544 -576 -482 -390 -306 -243 -199 -159 -194 -260 -423 -421 -453 -460 -566 -543 0 0 0 0 -343 -224 0 0 0 0 0 0 -91 0 0 0 0 0 0 0 0 0 0 0 0 0
-591 -515 -489 -410 -315 -266 -266 -258 -232 -311 -340 -367 -374 -371 -372 -497 -445 -26 0 0 0 -119 0 0 0 0 0 0 0 0 0 0 0 0 0 0 0 0 0 0 0 0 0
-446 -314 -268 -268 -265 -285 -330 -335 -318 -371 -384 -446 -392 -310 -378 -414 0 0 0 0 0 0 0 0 0 0 0 0 0 0 0 0 0 0 0 0 0 0 0 0 0 0 0
-343 -294 -263 -366 -520 -490 0 -253 -506 -287 -446 -351 -378 -429 -409 -356 -406 0 0 0 0 0 0 0 0 0 0 0 0 0 0 0 0 0 0 0 0 0 0 0 0 0 0
-460 -519 -553 -959 0 0 0 0 0 0 0 -400 -412 -514 0 -446 -366 0 0 0 0 0 0 0 0 0 0 0 0 0 0 0 0 0 0 0 0 0 0 0 0 0 0
-513 -674 -902 -898 0 0 0 0 0 0 0 0 -161 -18 -487 0 0 0 0 0 0 0 0 0 0 0 0 0 0 0 0 0 0 0 0 0 0 0 0 0 0 0 0
-460 -83 -553 -640 -749 -484 -251 0 0 0 0 0 0 0 0 0 0 0 0 0 0 0 0 0 0 0 0 0 0 0 0 0 0 0 0 0 0 0 0 0 0 0 0
-306 -302 -407 -599 -661 0 0 0 0 0 0 0 0 0 0 0 0 0 0 0 0 0 0 0 0 0 0 0 0 0 0 0 0 0 0 0 0 0 0 0 0 0 0
-263 -228 -292 -379 -445 -459 0 0 0 0 0 0 0 0 0 0 0 0 0 0 0 0 0 0 0 0 0 0 0 0 0 0 0 0 0 0 0 0 0 0 0 0 0
-331 -234 -183 -192 -238 -378 -340 -457 0 0 0 0 0 0 0 0 0 0 0 0 0 0 0 0 0 0 0 0 0 0 0 0 0 0 0 0 0 0 0 0 0 0 0
-78 0 -370 -164 -178 -226 -254 -445 -236 0 0 0 0 0 0 0 0 0 0 0 0 0 0 0 0 0 0 0 0 0 0 0 0 0 0 0 0 0 0 0 0 0 0
0 -86 0 0 0 0 0 0 -201 -68 0 0 0 0 0 0 0 0 0 0 0 0 0 0 0 0 0 0 0 0 0 0 0 0 0 0 0 0 0 0 0 0 0
0 0 0 0 0 0 0 0 0 0 0 0 0 0 0 0 0 0 0 0 0 0 0 0 0 0 0 0 0 0 0 0 0 0 0 0 0 0 0 0 0 0 0
-223 0 0 0 0 0 0 0 0 0 0 0 0 0 0 0 0 0 0 0 0 0 0 0 0 0 0 0 0 0 0 0 0 0 0 0 0 0 0 0 0 0 0
0 0 0 -35 0 0 0 0 0 0 0 0 0 0 0 0 0 0 0 0 0 0 0 0 0 0 0 0 0 0 0 0 0 0 0 0 0 0 0 0 0 0 0
Wind_Speed
20 19 17 16 15 12 11 11 11 10 12 12 14 13 13 11 10 8 7 7 7 7 5 6 7 4 3 3 1 2 1 3 3 2 3 2 2 3 5 4 5 6 5
20 19 18 16 15 15 15 12 10 11 11 14 14 14 13 12 11 11 10 9 9 8 7 6 7 4 5 5 4 5 3 3 4 4 2 3 6 4 4 4 4 3 4
19 18 17 17 16 17 17 16 12 12 11 12 14 15 14 13 11 11 11 10 10 9 9 8 7 7 5 4 5 4 3 3 3 3 4 1 2 1 3 2 3 4 3
20 20 19 19 19 18 16 16 15 13 12 11 12 13 13 13 12 12 11 11 11 10 9 9 9 9 8 8 5 6 5 4 3 3 2 3 3 2 1 3 4 1 3
22 21 22 20 18 16 16 16 15 14 12 11 11 11 11 11 10 13 13 13 12 10 9 8 9 12 13 10 5 6 5 4 3 3 3 2 3 2 3 2 3 3 4
21 23 20 19 18 17 16 15 14 13 10 11 12 12 12 10 15 16 15 13 11 8 8 7 7 11 13 12 14 11 10 6 2 3 5 4 6 3 3 3 3 2 4
23 20 20 19 19 18 16 15 14 15 12 11 11 11 12 13 15 17 15 8 10 10 9 8 7 7 7 5 9 10 5 9 7 5 11 6 5 5 4 3 5 4 4
22 20 19 19 19 17 16 16 14 13 14 12 12 13 12 11 14 15 16 8 7 8 9 9 9 7 7 6 6 5 5 6 5 5 9 10 7 6 6 5 4 4 3
20 20 20 20 18 17 17 16 14 13 12 13 13 12 14 10 15 16 12 7 6 8 8 6 6 6 7 8 6 6 6 5 5 10 12 11 9 8 6 2 4 2 3
23 23 22 19 18 18 17 16 14 13 13 10 11 12 13 10 13 16 10 5 6 6 5 5 8 8 11 9 7 6 6 5 2 3 2 3 4 6 6 6 4 4 2
23 18 17 19 19 17 15 12 13 12 10 8 9 6 8 11 11 11 13 6 6 4 4 4 4 10 13 13 10 6 5 4 4 1 2 4 4 5 5 2 4 4 3
17 16 16 18 14 13 16 13 13 12 11 10 9 7 4 5 8 11 12 10 7 5 4 3 4 11 10 6 7 5 7 5 2 1 1 3 3 3 3 3 4 3 5
14 14 15 15 15 15 17 15 11 11 9 9 7 8 6 5 4 6 8 8 6 4 3 4 5 5 6 7 6 6 8 4 2 1 2 3 2 3 3 3 3 3 5
16 15 15 17 15 14 11 12 11 10 8 9 8 8 6 5 5 4 4 4 6 5 6 4 3 4 5 4 4 3 3 3 4 4 3 3 2 2 2 1 2 2 2
16 14 12 11 13 12 9 5 7 4 11 10 7 7 8 5 5 9 9 6 6 5 7 4 2 1 2 1 1 2 3 4 4 3 2 2 2 1 2 1 1 2 1
20 19 8 10 9 8 12 8 16 5 11 13 15 12 3 5 13 13 11 11 13 14 4 3 3 4 4 4 4 4 4 6 4 3 1 2 2 2 2 3 1 1 3
15 13 13 16 13 13 11 10 8 7 16 11 12 16 16 15 16 15 12 11 13 9 3 4 4 4 4 4 4 4 3 3 4 4 3 3 2 2 2 2 2 2 3
8 5 12 10 11 10 11 9 6 8 7 4 11 7 9 16 15 15 17 12 5 1 2 3 3 4 5 5 4 4 3 3 3 3 2 1 2 2 1 2 2 2 3
9 6 8 10 10 9 9 10 7 5 7 6 4 7 7 10 11 11 8 5 4 4 4 3 3 4 4 5 5 4 4 4 3 3 3 3 1 1 2 3 4 5 4
10 9 8 8 8 8 8 10 9 9 7 5 4 4 4 4 3 3 2 3 4 3 3 5 5 5 5 6 5 5 4 3 2 1 1 2 1 2 1 3 3 3 4
6 5 8 7 7 9 8 6 6 7 7 8 7 7 10 7 7 6 5 5 5 4 5 7 6 6 5 5 5 5 4 3 2 1 3 3 3 1 2 2 3 4 4
5 2 2 6 5 5 6 9 6 5 7 8 5 5 11 3 4 5 6 5 5 5 5 6 5 5 5 6 6 5 5 4 3 4 4 3 2 2 2 2 3 3 4
6 4 4 5 5 6 5 5 8 7 7 8 7 6 6 4 5 5 5 5 5 5 4 6 6 5 5 5 5 6 6 6 6 6 5 4 2 1 1 2 3 3 4
5 5 6 5 5 6 7 7 6 6 7 8 9 8 8 8 6 6 5 6 4 5 5 5 5 7 7 4 5 4 4 5 5 5 6 4 3 1 1 2 2 4 4
4 7 6 6 5 5 6 3 5 4 6 7 6 6 6 6 6 5 5 5 6 6 6 5 5 9 10 10 8 8 8 10 7 7 4 4 4 3 1 1 2 3 3
4 4 4 5 5 5 4 5 4 5 4 4 5 6 7 8 7 5 5 5 5 5 6 5 7 10 11 9 11 14 10 10 8 8 5 4 4 3 1 3 4 2 2
Wind_Direction
191 194 191 196 196 186 195 196 197 185 190 186 186 189 189 187 184 183 181 178 185 195 207 207 222 205 204 207 194 125 188 147 178 285 238 252 283 261 292 282 256 246 251
190 192 195 192 191 196 206 204 189 196 186 188 188 191 194 193 187 190 186 191 190 193 203 205 224 220 217 209 204 198 202 213 146 217 254 255 219 229 239 278 284 294 277
188 190 192 194 193 198 204 205 197 198 191 185 187 191 193 193 190 196 191 189 197 195 194 199 211 209 225 207 207 214 200 205 188 178 242 284 299 343 334 311 274 284 296
188 190 193 195 198 200 201 201 201 197 191 189 190 190 192 193 192 195 191 197 201 199 195 202 202 210 212 214 210 215 213 208 192 229 251 265 243 273 204 246 292 291 288
189 191 195 197 198 199 199 199 199 202 195 186 184 192 188 191 192 194 194 201 208 199 195 198 210 215 216 203 195 220 208 222 210 216 259 252 253 270 220 228 233 269 282
192 200 193 194 195 198 197 196 192 194 181 170 185 186 186 201 200 193 195 207 204 208 213 212 219 214 224 212 212 203 197 202 212 88 299 254 256 223 215 219 211 248 290
195 195 195 193 196 196 194 190 188 190 182 179 176 179 198 208 203 196 191 172 185 203 202 204 217 225 201 225 231 224 194 216 191 229 257 239 245 216 201 226 222 214 227
194 194 195 194 196 192 187 190 186 184 187 182 184 184 196 213 203 183 181 187 187 203 213 206 211 206 197 207 225 213 214 227 218 219 226 258 233 252 205 213 233 243 293
193 195 194 196 190 187 191 185 182 182 185 192 191 180 195 191 182 157 156 179 187 214 214 203 202 203 211 200 177 210 238 250 213 232 234 249 260 259 232 160 249 178 274
195 196 193 188 189 188 186 181 182 179 188 185 175 178 186 173 157 158 164 181 187 205 208 219 214 208 194 176 194 207 234 253 221 267 317 322 309 289 262 199 206 214 235
202 191 184 185 186 185 176 177 165 173 165 161 137 138 155 153 170 179 180 174 191 186 194 217 221 187 175 190 199 175 209 139 217 197 308 298 299 302 302 271 211 187 194
185 183 183 179 175 170 164 157 162 157 154 150 133 140 155 148 168 198 194 198 174 180 190 213 217 191 196 189 181 189 170 153 150 208 282 304 305 306 302 309 317 252 222
164 171 177 173 165 159 152 151 154 152 151 141 139 143 164 164 163 171 192 188 187 175 173 185 143 115 163 179 193 164 151 156 159 191 260 266 236 255 304 311 298 270 272
159 158 153 153 150 150 150 153 148 151 147 141 144 154 154 146 143 139 143 144 135 131 131 110 88 98 95 101 105 124 154 177 194 199 205 220 277 314 302 264 286 317 340
141 139 138 130 124 110 74 74 139 120 145 149 160 148 141 158 184 169 161 167 163 148 113 95 108 103 119 86 216 188 202 212 205 214 217 235 241 270 275 294 276 308 260
136 124 144 118 109 105 101 84 28 35 102 124 137 136 109 131 148 152 155 152 137 141 103 135 174 181 182 200 215 221 206 212 214 207 157 181 236 243 279 294 248 242 273
121 128 127 129 119 135 121 124 143 37 55 64 133 143 150 158 153 148 143 137 141 134 131 173 182 188 213 217 186 186 190 200 154 135 155 185 216 259 258 300 324 283 304
116 125 111 138 128 128 125 142 137 136 122 90 36 38 127 141 139 134 126 106 109 263 162 166 186 190 174 143 139 135 128 123 127 149 162 211 209 230 303 314 302 287 289
95 121 136 115 110 128 127 119 114 106 121 116 102 59 37 72 98 118 125 115 149 182 182 163 169 162 154 133 142 147 155 166 175 185 200 209 232 119 294 276 297 298 281
73 96 102 100 120 140 136 132 146 138 119 121 142 146 142 100 140 142 128 134 166 185 180 165 164 153 151 152 158 152 153 158 158 202 260 189 162 174 251 299 319 310 303
101 125 131 142 159 128 122 134 139 135 152 153 189 175 178 158 165 164 171 182 180 180 162 147 167 169 170 162 152 169 166 163 153 176 159 170 187 105 352 312 302 298 293
63 56 132 159 155 150 145 131 145 159 172 171 160 144 155 120 141 169 193 193 189 184 173 167 170 169 169 170 167 165 162 167 172 158 156 180 139 74 28 2 325 318 323
111 123 93 77 87 100 111 135 165 180 165 147 150 147 170 188 176 194 194 202 190 185 179 168 167 176 174 167 159 162 157 176 177 159 159 162 158 73 28 352 321 321 328
62 77 83 82 101 119 129 132 127 133 146 147 160 165 177 189 196 209 201 198 173 175 171 160 156 154 149 147 135 156 164 150 153 170 159 163 170 154 350 336 313 303 296
95 109 99 113 123 112 107 117 114 131 158 160 154 168 173 172 184 208 194 168 167 158 171 154 145 153 153 157 152 149 154 154 165 173 165 163 167 187 210 276 288 297 315
106 113 132 119 112 117 124 139 152 154 168 168 167 171 176 191 186 172 167 153 148 159 149 136 156 159 167 171 158 158 167 184 179 185 163 160 167 188 205 287 279 263 340